FLOCK 4S-33 (47469 NORAD) Tracking and Keplerian Element Data

This shows tracking and keplerian element data for the satellite.

Feedback or suggestion? Click here.




ElementValue
Catalog47469
NameFLOCK 4S-33
Epoch Orbit1198
Epoch Day101.9169774
Epoch Year2021
RAAN164.1901
Inclination97.4961
Eccentricity0.0007346
Argument of Perigee357.0414
Mean Anonmoly3.0771
Mean Motion15.11779263
Decay Rate2.213E-05
L11 47469U 21006BJ 21101.91697740 .00002213 00000-0 13337-3 0 9995
L22 47469 97.4961 164.1901 0007346 357.0414 3.0771 15.11779263 11983

Live tracking and technical data element details for FLOCK 4S-33 (NORAD 47469). FLOCK 4S-33 can be tracked NOW for your location showing map with azimuth and elevation plus other details from your city location.

Track the satellite on the map from your city or location and see movement details for azimuth, elevation, latitude, longitude, range, height, and movement on the map or in text.







IsCatalogInMostPopularTable: catalog: 47469, numindb: 16
Update: records affected: 1



GetName: 47469 FLOCK 4S-33

Hit Count: updated at: Tue, 13 Apr 2021 05:44:27 GMT